Regional Weather Roundup
Issued by NWS Goodland, KS

Home | Current Version | Previous Version | Text Only | Print | Product List | Glossary On
Versions: 1 2 3 4 5 6 7 8 9 10 11 12 13 14 15 16 17 18 19 20 21 22 23 24 25 26 27 28 29 30 31 32 33 34 35 36 37 38 39 40 41 42 43 44 45 46 47 48 49 50
000
ASUS43 KGLD 202059
RWRGLD

GOODLAND FORECAST AREA HOURLY WEATHER ROUNDUP
NATIONAL WEATHER SERVICE GOODLAND KS
300 PM MDT THU JUL 20 2017

...OFFICIAL OBSERVATIONS...

CITY           SKY/WX    TMP DP  RH WIND       PRES   REMARKS
GOODLAND KS    SUNNY     94  61  33 S9        30.01F
HILL CITY KS   SUNNY    103  56  21 S16G24    29.94F HX 102
IMPERIAL NEB   SUNNY     98  52  21 E6        29.98F
MCCOOK NEB     PTSUNNY  103  55  20 SW12      29.94F HX 101
AKRON CO       SUNNY     95  53  24 NW9       30.10F
BURLINGTON CO  SUNNY     96  61  31 N7        30.05F
LIMON CO       SUNNY     91  54  28 CALM      30.15F
$$

...UNOFFICIAL OBSERVATIONS...

CITY           SKY/WX    TMP DP  RH WIND       PRES   REMARKS
LENORA KS        N/A    100  32   9 MISG        N/A
NORTON KS      SUNNY    100  48  17 SE12G18   29.93F
SHARON SPRINGS   N/A     97  65  35 S9          N/A  HX 100
TRENTON NEB      N/A    103  32   8 S6          N/A
KIT CARSON CO    N/A     94  60  31 CALM        N/A
YUMA CO        FAIR      90  43  19 N10       30.07F
$$




USA.gov is the U.S. government's official web portal to all federal, state and local government web resources and services.